国际通讯卫星 3-F8星 (INTELSAT 3-F8)

导读

INTELSAT 3-F8是国际通信卫星组织(ITSO)于1970年7月23日发射的第三代国际通信卫星,属于该组织早期全球通信卫星组网的重要成员。作为冷战时期全球卫星通信体系建设的成果,它依托地球同步轨道部署,旨在为跨洲际公共电信业务提供空间段通信支撑,服务国际广播、跨洋语音通信等早期卫星应用需求,是全球卫星通信网络从试验走向商业化运营阶段的典型节点,见证了国际卫星通信合作的早期发展历程。

Basic Information
目录编号:
4478
目录名称:
INTELSAT 3-F8
国际标识:
1970-055A
轨道中心:
EARTH
卫星名称:
国际通讯卫星 3-F8星
卫星全名:
国际通讯卫星 3-F8星 (INTELSAT 3-F8)
卫星状态:
在轨 (已飞行20414 天)
发射日期:
1970-07-23 UTC
国别 :
(ITSO)
星等 :
--
Orbit Information
数据来源 国际轨道数据 AOE轨道数据
星历时间 2026-06-12T12:26:22+0800
22小时前
查看轨道信息
2026-06-09T08:00:00+0800
4天前
查看轨道信息
半长轴 41615.274km 41614.895km
偏心率 0.0317881 0.0318001
轨道倾角 5.449° 5.442°
近地点辐角 116.694° 116.614°
升交点赤经 69.392° 69.427°
平近点角 94.165° 1.626°
近地点 33914.266km 33913.4km
远地点 36560.008km 36560.116km
周期 1408.117分钟 1408.098分钟
每日圈数 1.022642 1.022656
Detailed Information
卫星平台:
Intelsat
平衡模式:
自旋稳定
覆盖范围:
全球
运营商:
国际卫星通信公司
运营商所在国:
美国
制造商(研发单位):
天合汽车集团
制造商所在国:
美国
使用方式:
暂无
Satellite Introduction
从1965年4月至1984年3月,国际通信卫星组织发射了5代、6种不同性能的卫星共计35颗,除6颗卫星因运载火箭和远地点发动机故障而发射失败外,其余29颗卫星均被送到了预定的静止轨道位置。1984年8月前后,国际通信卫星组织利用部署在大西洋、太平洋、印度洋上空的15颗国际通信卫星,为遍布世界各地170多个国家或地区提供电话、电传、电报、电视和数据传输等电信业务;该卫星已退役。
2D Orbit Map
3D Orbit Map
Orbit Altitude Analysis Chart
Orbit Inclination Analysis Chart
Orbit Comprehensive Analysis Chart
View Comprehensive Chart